Time,TemperatureF,DewpointF,PressureIn,WindDirection,WindDirectionDegrees,WindSpeedMPH,WindSpeedGustMPH,Humidity,HourlyPrecipIn,Conditions,Clouds,dailyrainin,SolarRadiationWatts/m^2,SoftwareType,DateUTC
2013-07-11 00:00:00,71.2,69.1,29.68,West,270,0.0,1.0,93,0.00,,,0.00,0.00,VWS V14.00,2013-07-11 04:00:00,
2013-07-11 00:14:00,71.2,69.1,29.67,WSW,244,8.0,8.0,93,0.00,,,0.00,0.00,VWS V14.00,2013-07-11 04:14:00,
2013-07-11 00:19:00,71.5,69.7,29.67,WSW,247,6.0,9.0,94,0.00,,,0.00,0.00,VWS V14.00,2013-07-11 04:19:00,
2013-07-11 00:24:00,71.6,69.8,29.67,WNW,302,1.0,4.0,94,0.00,,,0.00,0.00,VWS V14.00,2013-07-11 04:24:00,
2013-07-11 00:29:00,71.6,69.8,29.67,NNE,30,2.0,2.0,94,0.00,,,0.00,0.00,VWS V14.00,2013-07-11 04:29:00,
2013-07-11 00:34:00,71.6,69.8,29.67,NNE,30,0.0,2.0,94,0.00,,,0.00,0.00,VWS V14.00,2013-07-11 04:34:00,
2013-07-11 00:39:00,71.6,69.8,29.68,NNE,30,0.0,0.0,94,0.00,,,0.00,0.00,VWS V14.00,2013-07-11 04:39:00,
2013-07-11 00:44:00,71.6,69.8,29.68,NNE,30,0.0,1.0,94,0.00,,,0.00,0.00,VWS V14.00,2013-07-11 04:44:00,
2013-07-11 00:49:00,71.5,69.7,29.68,NNE,30,0.0,1.0,94,0.00,,,0.00,0.00,VWS V14.00,2013-07-11 04:49:00,
2013-07-11 00:54:00,71.3,69.2,29.68,NNE,30,0.0,1.0,93,0.00,,,0.00,0.00,VWS V14.00,2013-07-11 04:54:00,
2013-07-11 00:59:00,71.3,69.2,29.67,NNE,19,0.0,2.0,93,0.00,,,0.00,0.00,VWS V14.00,2013-07-11 04:59:00,
2013-07-11 01:04:00,71.2,69.1,29.68,NNE,19,0.0,1.0,93,0.00,,,0.00,0.00,VWS V14.00,2013-07-11 05:04:00,
2013-07-11 01:09:00,71.2,69.1,29.67,NNE,19,0.0,0.0,93,0.00,,,0.00,0.00,VWS V14.00,2013-07-11 05:09:00,
2013-07-11 01:14:00,71.1,69.0,29.67,NNE,19,0.0,2.0,93,0.00,,,0.00,0.00,VWS V14.00,2013-07-11 05:14:00,
2013-07-11 01:19:00,71.1,69.3,29.68,NNE,19,0.0,2.0,94,0.00,,,0.00,0.00,VWS V14.00,2013-07-11 05:19:00,
2013-07-11 01:24:00,71.0,69.2,29.68,NNE,19,0.0,2.0,94,0.00,,,0.00,0.00,VWS V14.00,2013-07-11 05:24:00,
2013-07-11 01:29:00,71.0,69.2,29.68,North,9,0.0,1.0,94,0.00,,,0.00,0.00,VWS V14.00,2013-07-11 05:29:00,
2013-07-11 01:34:00,71.0,69.2,29.68,WSW,241,1.0,5.0,94,0.00,,,0.00,0.00,VWS V14.00,2013-07-11 05:34:00,
2013-07-11 01:39:00,70.9,69.1,29.68,WSW,241,2.0,3.0,94,0.00,,,0.00,0.00,VWS V14.00,2013-07-11 05:39:00,
2013-07-11 01:44:00,70.9,69.1,29.68,WSW,241,1.0,2.0,94,0.00,,,0.00,0.00,VWS V14.00,2013-07-11 05:44:00,
2013-07-11 01:49:00,70.9,69.1,29.68,WSW,241,0.0,0.0,94,0.00,,,0.00,0.00,VWS V14.00,2013-07-11 05:49:00,
2013-07-11 01:54:00,70.9,69.1,29.68,WSW,241,0.0,0.0,94,0.00,,,0.00,0.00,VWS V14.00,2013-07-11 05:54:00,
2013-07-11 01:59:00,70.9,69.1,29.68,WSW,241,0.0,0.0,94,0.00,,,0.00,0.00,VWS V14.00,2013-07-11 05:59:00,
2013-07-11 02:04:00,70.8,69.0,29.68,WSW,241,0.0,0.0,94,0.00,,,0.00,0.00,VWS V14.00,2013-07-11 06:04:00,
2013-07-11 02:10:00,70.8,69.0,29.68,WSW,241,0.0,2.0,94,0.00,,,0.00,0.00,VWS V14.00,2013-07-11 06:10:00,
2013-07-11 02:15:00,70.8,69.0,29.68,WSW,241,0.0,3.0,94,0.00,,,0.00,0.00,VWS V14.00,2013-07-11 06:15:00,
2013-07-11 02:20:00,70.7,68.9,29.68,WNW,294,0.0,8.0,94,0.00,,,0.00,0.00,VWS V14.00,2013-07-11 06:20:00,
2013-07-11 02:25:00,70.6,68.8,29.68,WNW,292,0.0,6.0,94,0.00,,,0.00,0.00,VWS V14.00,2013-07-11 06:25:00,
2013-07-11 02:30:00,70.5,68.7,29.68,WNW,298,2.0,4.0,94,0.00,,,0.00,0.00,VWS V14.00,2013-07-11 06:30:00,
2013-07-11 02:35:00,70.4,68.6,29.67,West,276,1.0,6.0,94,0.00,,,0.00,0.00,VWS V14.00,2013-07-11 06:35:00,
2013-07-11 02:40:00,70.4,68.6,29.68,WNW,303,0.0,8.0,94,0.00,,,0.00,0.00,VWS V14.00,2013-07-11 06:40:00,
2013-07-11 02:45:00,70.4,68.6,29.68,NW,317,0.0,6.0,94,0.00,,,0.00,0.00,VWS V14.00,2013-07-11 06:45:00,
2013-07-11 02:50:00,70.5,68.4,29.68,West,267,1.0,4.0,93,0.00,,,0.00,0.00,VWS V14.00,2013-07-11 06:50:00,
2013-07-11 02:55:00,70.6,68.5,29.68,WNW,292,0.0,5.0,93,0.00,,,0.00,0.00,VWS V14.00,2013-07-11 06:55:00,
2013-07-11 03:00:00,70.6,68.5,29.68,WNW,292,0.0,1.0,93,0.00,,,0.00,0.00,VWS V14.00,2013-07-11 07:00:00,
2013-07-11 03:05:00,70.8,68.7,29.68,WNW,292,0.0,1.0,93,0.00,,,0.00,0.00,VWS V14.00,2013-07-11 07:05:00,
2013-07-11 03:10:00,70.8,68.7,29.68,NW,314,0.0,4.0,93,0.00,,,0.00,0.00,VWS V14.00,2013-07-11 07:10:00,
2013-07-11 03:15:00,70.8,68.7,29.69,NW,314,0.0,2.0,93,0.00,,,0.00,0.00,VWS V14.00,2013-07-11 07:15:00,
2013-07-11 03:20:00,70.8,68.4,29.68,North,355,10.0,10.0,92,0.00,,,0.00,0.00,VWS V14.00,2013-07-11 07:20:00,
2013-07-11 03:25:00,70.8,68.4,29.68,NNW,340,0.0,5.0,92,0.00,,,0.00,0.00,VWS V14.00,2013-07-11 07:25:00,
2013-07-11 03:30:00,70.8,68.4,29.68,NNW,327,0.0,3.0,92,0.00,,,0.00,0.00,VWS V14.00,2013-07-11 07:30:00,
2013-07-11 03:35:00,70.9,68.2,29.69,NNW,327,0.0,3.0,91,0.00,,,0.00,0.00,VWS V14.00,2013-07-11 07:35:00,
2013-07-11 03:40:00,71.0,68.2,29.69,NNW,327,0.0,0.0,91,0.00,,,0.00,0.00,VWS V14.00,2013-07-11 07:40:00,
2013-07-11 03:45:00,71.0,68.2,29.69,NNW,327,0.0,0.0,91,0.00,,,0.00,0.00,VWS V14.00,2013-07-11 07:45:00,
2013-07-11 03:50:00,71.1,68.3,29.70,NNW,327,0.0,1.0,91,0.00,,,0.00,0.00,VWS V14.00,2013-07-11 07:50:00,
2013-07-11 03:55:00,71.1,68.3,29.69,WNW,302,0.0,5.0,91,0.00,,,0.00,0.00,VWS V14.00,2013-07-11 07:55:00,
2013-07-11 04:00:00,71.1,68.0,29.69,NW,316,0.0,3.0,90,0.00,,,0.00,0.00,VWS V14.00,2013-07-11 08:00:00,
2013-07-11 04:05:00,71.0,67.9,29.70,WNW,300,0.0,5.0,90,0.00,,,0.00,0.00,VWS V14.00,2013-07-11 08:05:00,
2013-07-11 04:10:00,71.0,67.9,29.70,NW,315,0.0,2.0,90,0.00,,,0.00,0.00,VWS V14.00,2013-07-11 08:10:00,
2013-07-11 04:15:00,71.0,67.9,29.70,NW,315,1.0,2.0,90,0.00,,,0.00,0.00,VWS V14.00,2013-07-11 08:15:00,
2013-07-11 04:20:00,71.0,67.9,29.70,NNE,25,2.0,4.0,90,0.00,,,0.00,0.00,VWS V14.00,2013-07-11 08:20:00,
2013-07-11 04:25:00,71.0,67.9,29.71,NNW,345,2.0,5.0,90,0.00,,,0.00,0.00,VWS V14.00,2013-07-11 08:25:00,
2013-07-11 04:30:00,71.0,67.9,29.71,NNW,346,0.0,4.0,90,0.00,,,0.00,0.00,VWS V14.00,2013-07-11 08:30:00,
2013-07-11 04:35:00,70.9,67.8,29.70,NE,44,3.0,5.0,90,0.00,,,0.00,0.00,VWS V14.00,2013-07-11 08:35:00,
2013-07-11 04:40:00,70.9,68.2,29.69,NE,39,0.0,5.0,91,0.00,,,0.00,0.00,VWS V14.00,2013-07-11 08:40:00,
2013-07-11 04:45:00,70.8,68.1,29.71,NE,39,0.0,1.0,91,0.00,,,0.00,0.00,VWS V14.00,2013-07-11 08:45:00,
2013-07-11 04:50:00,70.7,67.9,29.70,NNE,21,1.0,3.0,91,0.00,,,0.00,0.00,VWS V14.00,2013-07-11 08:50:00,
2013-07-11 04:55:00,70.6,67.8,29.69,NNE,19,0.0,3.0,91,0.00,,,0.00,0.00,VWS V14.00,2013-07-11 08:55:00,
2013-07-11 05:00:00,70.5,67.8,29.70,ENE,70,0.0,4.0,91,0.00,,,0.00,0.00,VWS V14.00,2013-07-11 09:00:00,
2013-07-11 05:05:00,70.5,67.8,29.69,ENE,70,0.0,0.0,91,0.00,,,0.00,0.00,VWS V14.00,2013-07-11 09:05:00,
2013-07-11 05:10:00,70.4,67.7,29.70,ENE,70,0.0,2.0,91,0.00,,,0.00,0.00,VWS V14.00,2013-07-11 09:10:00,
2013-07-11 05:15:00,70.4,67.7,29.71,ENE,70,0.0,0.0,91,0.00,,,0.00,0.00,VWS V14.00,2013-07-11 09:15:00,
2013-07-11 05:20:00,70.4,67.7,29.71,ENE,70,0.0,0.0,91,0.00,,,0.00,0.00,VWS V14.00,2013-07-11 09:20:00,
2013-07-11 05:25:00,70.4,68.0,29.71,ENE,70,0.0,0.0,92,0.00,,,0.00,0.00,VWS V14.00,2013-07-11 09:25:00,
2013-07-11 05:30:00,70.3,67.9,29.72,ENE,70,0.0,1.0,92,0.00,,,0.00,0.00,VWS V14.00,2013-07-11 09:30:00,
2013-07-11 05:35:00,70.3,67.9,29.72,ENE,70,0.0,0.0,92,0.00,,,0.00,0.00,VWS V14.00,2013-07-11 09:35:00,
2013-07-11 05:40:00,70.2,67.8,29.72,ENE,70,0.0,0.0,92,0.00,,,0.00,5.00,VWS V14.00,2013-07-11 09:40:00,
2013-07-11 05:45:00,70.2,67.8,29.72,ENE,70,0.0,0.0,92,0.00,,,0.00,0.00,VWS V14.00,2013-07-11 09:45:00,
2013-07-11 05:50:00,70.1,67.7,29.73,ENE,70,0.0,2.0,92,0.00,,,0.00,0.00,VWS V14.00,2013-07-11 09:50:00,
2013-07-11 05:55:00,70.1,67.7,29.73,ENE,69,0.0,0.0,92,0.00,,,0.00,5.00,VWS V14.00,2013-07-11 09:55:00,
2013-07-11 06:00:00,70.0,67.6,29.73,ENE,70,0.0,2.0,92,0.00,,,0.00,0.00,VWS V14.00,2013-07-11 10:00:00,
2013-07-11 06:05:00,70.0,67.6,29.73,ENE,70,0.0,1.0,92,0.00,,,0.00,11.00,VWS V14.00,2013-07-11 10:05:00,
2013-07-11 06:10:00,70.0,67.6,29.73,ENE,69,0.0,1.0,92,0.01,,,0.01,12.00,VWS V14.00,2013-07-11 10:10:00,
2013-07-11 06:15:00,69.9,67.8,29.74,ENE,70,0.0,1.0,93,0.01,,,0.01,14.00,VWS V14.00,2013-07-11 10:15:00,
2013-07-11 06:20:00,69.9,67.8,29.74,ENE,70,0.0,0.0,93,0.01,,,0.01,14.00,VWS V14.00,2013-07-11 10:20:00,
2013-07-11 06:25:00,69.9,67.8,29.74,ENE,70,0.0,0.0,93,0.01,,,0.01,21.00,VWS V14.00,2013-07-11 10:25:00,
2013-07-11 06:30:00,69.9,67.8,29.74,ENE,70,0.0,2.0,93,0.01,,,0.01,30.00,VWS V14.00,2013-07-11 10:30:00,
2013-07-11 06:35:00,69.9,67.8,29.74,ENE,70,0.0,0.0,93,0.01,,,0.01,32.00,VWS V14.00,2013-07-11 10:35:00,
2013-07-11 06:40:00,69.8,67.7,29.74,ENE,70,0.0,0.0,93,0.01,,,0.01,42.00,VWS V14.00,2013-07-11 10:40:00,
2013-07-11 06:45:00,69.8,67.7,29.74,ENE,70,0.0,0.0,93,0.01,,,0.01,47.00,VWS V14.00,2013-07-11 10:45:00,
2013-07-11 06:50:00,69.8,67.7,29.74,ENE,70,0.0,0.0,93,0.01,,,0.01,63.00,VWS V14.00,2013-07-11 10:50:00,
2013-07-11 06:55:00,69.9,67.8,29.74,ENE,70,0.0,0.0,93,0.01,,,0.01,79.00,VWS V14.00,2013-07-11 10:55:00,
2013-07-11 07:00:00,69.9,67.8,29.75,ENE,70,0.0,0.0,93,0.01,,,0.01,76.00,VWS V14.00,2013-07-11 11:00:00,
2013-07-11 07:05:00,70.1,68.3,29.75,ENE,69,0.0,1.0,94,0.01,,,0.01,81.00,VWS V14.00,2013-07-11 11:05:00,
2013-07-11 07:10:00,70.2,68.4,29.75,ENE,70,1.0,2.0,94,0.01,,,0.01,84.00,VWS V14.00,2013-07-11 11:10:00,
2013-07-11 07:15:00,70.3,68.5,29.75,ESE,108,0.0,1.0,94,0.00,,,0.01,91.00,VWS V14.00,2013-07-11 11:15:00,
2013-07-11 07:20:00,70.4,68.6,29.75,SE,127,1.0,2.0,94,0.00,,,0.01,120.00,VWS V14.00,2013-07-11 11:20:00,
2013-07-11 07:25:00,70.6,68.8,29.75,SE,127,0.0,2.0,94,0.00,,,0.01,163.00,VWS V14.00,2013-07-11 11:25:00,
2013-07-11 07:30:00,70.7,68.9,29.75,SE,141,0.0,2.0,94,0.00,,,0.01,141.00,VWS V14.00,2013-07-11 11:30:00,
2013-07-11 07:35:00,71.0,69.2,29.76,SE,141,0.0,1.0,94,0.00,,,0.01,90.00,VWS V14.00,2013-07-11 11:35:00,
2013-07-11 07:40:00,71.1,69.3,29.76,SE,141,0.0,2.0,94,0.00,,,0.01,70.00,VWS V14.00,2013-07-11 11:40:00,
2013-07-11 07:45:00,71.2,69.4,29.76,SE,141,0.0,1.0,94,0.00,,,0.01,95.00,VWS V14.00,2013-07-11 11:45:00,
2013-07-11 07:50:00,71.3,69.5,29.76,SE,141,0.0,0.0,94,0.00,,,0.01,118.00,VWS V14.00,2013-07-11 11:50:00,
2013-07-11 07:55:00,71.5,69.7,29.76,SE,141,0.0,2.0,94,0.00,,,0.01,135.00,VWS V14.00,2013-07-11 11:55:00,
2013-07-11 08:00:00,71.6,69.8,29.76,SE,146,0.0,3.0,94,0.00,,,0.01,127.00,VWS V14.00,2013-07-11 12:00:00,
2013-07-11 08:05:00,71.7,69.9,29.76,SE,146,0.0,1.0,94,0.00,,,0.01,95.00,VWS V14.00,2013-07-11 12:05:00,
2013-07-11 08:10:00,71.9,70.1,29.76,SE,146,0.0,0.0,94,0.00,,,0.01,223.00,VWS V14.00,2013-07-11 12:10:00,
2013-07-11 08:16:00,71.9,70.1,29.76,SE,146,0.0,1.0,94,0.00,,,0.01,156.00,VWS V14.00,2013-07-11 12:16:00,
2013-07-11 08:21:00,71.7,69.9,29.76,SE,146,0.0,1.0,94,0.00,,,0.01,346.00,VWS V14.00,2013-07-11 12:21:00,
2013-07-11 08:26:00,71.7,69.6,29.75,West,277,0.0,4.0,93,0.00,,,0.01,531.00,VWS V14.00,2013-07-11 12:26:00,
2013-07-11 08:31:00,71.8,70.0,29.76,WNW,297,1.0,2.0,94,0.00,,,0.01,540.00,VWS V14.00,2013-07-11 12:31:00,
2013-07-11 08:36:00,72.5,70.7,29.76,WSW,242,2.0,4.0,94,0.00,,,0.01,485.00,VWS V14.00,2013-07-11 12:36:00,
2013-07-11 08:41:00,72.7,70.2,29.76,North,5,2.0,5.0,92,0.00,,,0.01,617.00,VWS V14.00,2013-07-11 12:41:00,
2013-07-11 08:46:00,72.7,69.9,29.76,SW,226,4.0,6.0,91,0.00,,,0.01,661.00,VWS V14.00,2013-07-11 12:46:00,
2013-07-11 08:51:00,73.2,69.8,29.76,West,265,3.0,5.0,89,0.00,,,0.01,714.00,VWS V14.00,2013-07-11 12:51:00,
2013-07-11 08:56:00,73.8,69.3,29.77,NW,323,0.0,7.0,86,0.00,,,0.01,714.00,VWS V14.00,2013-07-11 12:56:00,
2013-07-11 09:01:00,74.2,69.1,29.77,SSW,207,0.0,7.0,84,0.00,,,0.01,220.00,VWS V14.00,2013-07-11 13:01:00,
2013-07-11 09:06:00,74.5,69.3,29.77,ESE,119,0.0,5.0,84,0.00,,,0.01,274.00,VWS V14.00,2013-07-11 13:06:00,
2013-07-11 09:11:00,74.5,69.3,29.77,ESE,113,0.0,4.0,84,0.00,,,0.01,135.00,VWS V14.00,2013-07-11 13:11:00,
2013-07-11 09:16:00,74.1,68.3,29.77,ENE,68,0.0,7.0,82,0.00,,,0.01,58.00,VWS V14.00,2013-07-11 13:16:00,
2013-07-11 09:21:00,73.7,68.2,29.78,East,84,1.0,5.0,83,0.00,,,0.01,72.00,VWS V14.00,2013-07-11 13:21:00,
2013-07-11 09:26:00,73.3,67.8,29.78,ENE,61,0.0,3.0,83,0.00,,,0.01,58.00,VWS V14.00,2013-07-11 13:26:00,
2013-07-11 09:31:00,73.0,67.5,29.78,ENE,72,0.0,1.0,83,0.00,,,0.01,47.00,VWS V14.00,2013-07-11 13:31:00,
2013-07-11 09:36:00,72.9,67.8,29.78,ENE,73,0.0,1.0,84,0.01,,,0.02,81.00,VWS V14.00,2013-07-11 13:36:00,
2013-07-11 09:41:00,72.7,67.6,29.78,ENE,73,0.0,0.0,84,0.01,,,0.02,107.00,VWS V14.00,2013-07-11 13:41:00,
2013-07-11 09:46:00,72.5,67.7,29.78,ENE,73,0.0,0.0,85,0.01,,,0.02,90.00,VWS V14.00,2013-07-11 13:46:00,
2013-07-11 09:51:00,72.3,67.5,29.78,ENE,73,0.0,0.0,85,0.01,,,0.02,74.00,VWS V14.00,2013-07-11 13:51:00,
2013-07-11 09:56:00,72.1,67.7,29.79,ENE,73,0.0,0.0,86,0.02,,,0.03,130.00,VWS V14.00,2013-07-11 13:56:00,
2013-07-11 10:01:00,72.0,67.9,29.79,ENE,73,0.0,0.0,87,0.02,,,0.03,172.00,VWS V14.00,2013-07-11 14:01:00,
2013-07-11 10:06:00,72.0,68.3,29.79,ENE,73,0.0,0.0,88,0.02,,,0.03,290.00,VWS V14.00,2013-07-11 14:06:00,
2013-07-11 10:11:00,72.1,68.7,29.79,ENE,73,1.0,1.0,89,0.02,,,0.03,406.00,VWS V14.00,2013-07-11 14:11:00,
2013-07-11 10:16:00,72.8,69.7,29.79,East,80,0.0,0.0,90,0.02,,,0.03,846.00,VWS V14.00,2013-07-11 14:16:00,
2013-07-11 10:21:00,73.6,70.8,29.78,SSE,167,1.0,2.0,91,0.02,,,0.03,1005.00,VWS V14.00,2013-07-11 14:21:00,
2013-07-11 10:26:00,74.5,70.7,29.79,SSE,157,0.0,2.0,88,0.02,,,0.03,998.00,VWS V14.00,2013-07-11 14:26:00,
2013-07-11 10:31:00,74.8,71.0,29.79,SSE,155,1.0,1.0,88,0.02,,,0.03,383.00,VWS V14.00,2013-07-11 14:31:00,
2013-07-11 10:36:00,75.1,70.3,29.79,NE,49,0.0,2.0,85,0.01,,,0.03,383.00,VWS V14.00,2013-07-11 14:36:00,
2013-07-11 10:41:00,74.8,68.9,29.79,ESE,112,0.0,1.0,82,0.01,,,0.03,1037.00,VWS V14.00,2013-07-11 14:41:00,
2013-07-11 10:46:00,75.1,66.6,29.79,NW,326,6.0,6.0,75,0.01,,,0.03,898.00,VWS V14.00,2013-07-11 14:46:00,
2013-07-11 10:51:00,75.6,65.5,29.79,North,10,3.0,6.0,71,0.02,,,0.04,847.00,VWS V14.00,2013-07-11 14:51:00,
2013-07-11 10:56:00,76.1,66.0,29.79,NNW,346,0.0,1.0,71,0.01,,,0.04,886.00,VWS V14.00,2013-07-11 14:56:00,
2013-07-11 11:02:00,76.6,64.8,29.79,NNE,28,7.0,8.0,67,0.01,,,0.04,1143.00,VWS V14.00,2013-07-11 15:02:00,
2013-07-11 11:07:00,76.7,64.5,29.80,NNE,29,6.0,9.0,66,0.01,,,0.04,446.00,VWS V14.00,2013-07-11 15:07:00,
2013-07-11 11:12:00,76.6,64.0,29.79,North,360,3.0,4.0,65,0.01,,,0.04,1146.00,VWS V14.00,2013-07-11 15:12:00,
2013-07-11 11:17:00,76.5,63.4,29.79,NNW,342,0.0,3.0,64,0.01,,,0.04,262.00,VWS V14.00,2013-07-11 15:17:00,
2013-07-11 11:22:00,76.5,64.7,29.80,NNW,348,3.0,8.0,67,0.01,,,0.04,962.00,VWS V14.00,2013-07-11 15:22:00,
2013-07-11 11:27:00,76.5,62.5,29.80,NE,36,1.0,8.0,62,0.01,,,0.04,905.00,VWS V14.00,2013-07-11 15:27:00,
2013-07-11 11:32:00,77.0,63.9,29.80,NNW,332,3.0,4.0,64,0.01,,,0.04,981.00,VWS V14.00,2013-07-11 15:32:00,
2013-07-11 11:38:00,77.2,64.5,29.80,NNW,336,1.0,5.0,65,0.01,,,0.04,907.00,VWS V14.00,2013-07-11 15:38:00,
2013-07-11 11:43:00,77.5,63.9,29.80,NE,51,8.0,8.0,63,0.01,,,0.04,921.00,VWS V14.00,2013-07-11 15:43:00,
2013-07-11 11:48:00,77.6,62.6,29.80,NNW,344,7.0,12.0,60,0.01,,,0.04,953.00,VWS V14.00,2013-07-11 15:48:00,
2013-07-11 11:53:00,77.8,63.3,29.80,NNE,24,0.0,8.0,61,0.00,,,0.04,969.00,VWS V14.00,2013-07-11 15:53:00,
2013-07-11 11:58:00,78.4,63.8,29.80,NNW,330,10.0,11.0,61,0.00,,,0.04,1007.00,VWS V14.00,2013-07-11 15:58:00,
2013-07-11 12:03:00,78.9,62.4,29.80,NNE,15,4.0,10.0,57,0.00,,,0.04,1016.00,VWS V14.00,2013-07-11 16:03:00,
2013-07-11 12:08:00,79.1,60.5,29.80,NW,321,4.0,17.0,53,0.00,,,0.04,1037.00,VWS V14.00,2013-07-11 16:08:00,
2013-07-11 12:13:00,79.0,63.0,29.80,NNW,329,6.0,12.0,58,0.00,,,0.04,1039.00,VWS V14.00,2013-07-11 16:13:00,
2013-07-11 12:18:00,79.1,62.1,29.80,ENE,63,3.0,9.0,56,0.00,,,0.04,1065.00,VWS V14.00,2013-07-11 16:18:00,
2013-07-11 12:23:00,78.9,61.4,29.80,NNW,342,5.0,11.0,55,0.00,,,0.04,311.00,VWS V14.00,2013-07-11 16:23:00,
2013-07-11 12:28:00,78.9,61.4,29.80,NNE,20,8.0,9.0,55,0.01,,,0.05,1023.00,VWS V14.00,2013-07-11 16:28:00,
2013-07-11 12:33:00,79.4,63.3,29.80,North,5,2.0,12.0,58,0.01,,,0.05,974.00,VWS V14.00,2013-07-11 16:33:00,
2013-07-11 12:38:00,79.5,62.5,29.80,NNW,348,3.0,6.0,56,0.01,,,0.05,981.00,VWS V14.00,2013-07-11 16:38:00,
2013-07-11 12:43:00,79.9,64.8,29.80,NNW,348,4.0,8.0,60,0.01,,,0.05,1025.00,VWS V14.00,2013-07-11 16:43:00,
2013-07-11 12:49:00,80.3,62.7,29.80,NE,39,6.0,12.0,55,0.01,,,0.05,1125.00,VWS V14.00,2013-07-11 16:49:00,
2013-07-11 12:54:00,80.1,61.4,29.80,NE,43,3.0,12.0,53,0.01,,,0.05,1317.00,VWS V14.00,2013-07-11 16:54:00,
2013-07-11 12:59:00,80.1,62.5,29.80,NNE,28,6.0,14.0,55,0.01,,,0.05,288.00,VWS V14.00,2013-07-11 16:59:00,
2013-07-11 13:04:00,79.5,62.5,29.80,NNE,29,1.0,10.0,56,0.01,,,0.05,306.00,VWS V14.00,2013-07-11 17:04:00,
2013-07-11 13:09:00,78.9,61.9,29.80,NNW,344,9.0,12.0,56,0.01,,,0.05,385.00,VWS V14.00,2013-07-11 17:09:00,
2013-07-11 13:14:00,78.7,62.7,29.80,North,5,12.0,13.0,58,0.01,,,0.05,434.00,VWS V14.00,2013-07-11 17:14:00,
2013-07-11 13:19:00,78.7,63.2,29.80,North,355,7.0,9.0,59,0.01,,,0.05,373.00,VWS V14.00,2013-07-11 17:19:00,
2013-07-11 13:25:00,78.7,62.2,29.80,NNW,344,2.0,10.0,57,0.01,,,0.05,443.00,VWS V14.00,2013-07-11 17:25:00,
2013-07-11 13:30:00,79.1,63.6,29.81,NNE,13,2.0,9.0,59,0.01,,,0.05,1051.00,VWS V14.00,2013-07-11 17:30:00,
2013-07-11 13:35:00,79.5,62.5,29.80,ENE,65,0.0,7.0,56,0.00,,,0.05,1020.00,VWS V14.00,2013-07-11 17:35:00,
2013-07-11 13:40:00,79.6,64.0,29.81,ENE,61,3.0,3.0,59,0.00,,,0.05,432.00,VWS V14.00,2013-07-11 17:40:00,
2013-07-11 13:45:00,79.7,63.1,29.81,ENE,59,0.0,4.0,57,0.00,,,0.05,1134.00,VWS V14.00,2013-07-11 17:45:00,
2013-07-11 13:50:00,80.4,67.6,29.81,SSE,147,2.0,12.0,65,0.00,,,0.05,1141.00,VWS V14.00,2013-07-11 17:50:00,
2013-07-11 13:55:00,80.5,67.7,29.81,East,98,2.0,12.0,65,0.00,,,0.05,1206.00,VWS V14.00,2013-07-11 17:55:00,
2013-07-11 14:00:00,80.1,67.7,29.81,East,87,5.0,7.0,66,0.00,,,0.05,366.00,VWS V14.00,2013-07-11 18:00:00,
2013-07-11 14:05:00,79.5,67.2,29.81,SSE,148,0.0,7.0,66,0.00,,,0.05,260.00,VWS V14.00,2013-07-11 18:05:00,
2013-07-11 14:10:00,78.7,66.0,29.81,NE,50,0.0,6.0,65,0.00,,,0.05,318.00,VWS V14.00,2013-07-11 18:10:00,
2013-07-11 14:15:00,78.3,67.3,29.81,East,101,3.0,8.0,69,0.00,,,0.05,396.00,VWS V14.00,2013-07-11 18:15:00,
2013-07-11 14:20:00,77.8,67.2,29.81,ENE,72,2.0,7.0,70,0.00,,,0.05,826.00,VWS V14.00,2013-07-11 18:20:00,
2013-07-11 14:25:00,77.8,67.7,29.81,NE,35,0.0,8.0,71,0.00,,,0.05,1162.00,VWS V14.00,2013-07-11 18:25:00,
2013-07-11 14:30:00,78.1,67.9,29.82,ESE,113,3.0,12.0,71,0.00,,,0.05,1085.00,VWS V14.00,2013-07-11 18:30:00,
2013-07-11 14:36:00,78.3,67.3,29.82,East,92,1.0,14.0,69,0.00,,,0.05,218.00,VWS V14.00,2013-07-11 18:36:00,
2013-07-11 14:41:00,77.6,66.2,29.82,ENE,76,3.0,10.0,68,0.00,,,0.05,221.00,VWS V14.00,2013-07-11 18:41:00,
2013-07-11 14:46:00,76.9,66.0,29.83,NE,56,1.0,7.0,69,0.00,,,0.05,227.00,VWS V14.00,2013-07-11 18:46:00,
2013-07-11 14:51:00,76.2,65.7,29.83,ESE,109,0.0,9.0,70,0.00,,,0.05,334.00,VWS V14.00,2013-07-11 18:51:00,
2013-07-11 14:56:00,76.0,66.3,29.83,East,81,6.0,8.0,72,0.00,,,0.05,1181.00,VWS V14.00,2013-07-11 18:56:00,
2013-07-11 15:01:00,76.4,67.1,29.83,NE,43,7.0,10.0,73,0.00,,,0.05,1169.00,VWS V14.00,2013-07-11 19:01:00,
2013-07-11 15:06:00,76.8,67.1,29.83,ENE,69,8.0,8.0,72,0.00,,,0.05,355.00,VWS V14.00,2013-07-11 19:06:00,
2013-07-11 15:11:00,76.7,66.2,29.83,ENE,72,2.0,8.0,70,0.00,,,0.05,288.00,VWS V14.00,2013-07-11 19:11:00,
2013-07-11 15:16:00,76.2,65.7,29.83,ENE,74,0.0,13.0,70,0.00,,,0.05,329.00,VWS V14.00,2013-07-11 19:16:00,
2013-07-11 15:21:00,75.5,65.0,29.83,ENE,62,1.0,2.0,70,0.00,,,0.05,357.00,VWS V14.00,2013-07-11 19:21:00,
2013-07-11 15:26:00,75.2,66.0,29.84,East,81,2.0,2.0,73,0.00,,,0.05,353.00,VWS V14.00,2013-07-11 19:26:00,
2013-07-11 15:31:00,74.9,65.7,29.84,ENE,59,1.0,7.0,73,0.00,,,0.05,364.00,VWS V14.00,2013-07-11 19:31:00,
2013-07-11 15:36:00,74.7,65.5,29.84,North,355,0.0,0.0,73,0.00,,,0.05,297.00,VWS V14.00,2013-07-11 19:36:00,
2013-07-11 15:41:00,74.5,65.3,29.84,ENE,73,1.0,3.0,73,0.00,,,0.05,241.00,VWS V14.00,2013-07-11 19:41:00,
2013-07-11 15:46:00,74.5,65.7,29.84,ESE,114,1.0,1.0,74,0.00,,,0.05,225.00,VWS V14.00,2013-07-11 19:46:00,
2013-07-11 15:51:00,74.5,66.1,29.84,ENE,74,0.0,2.0,75,0.00,,,0.05,243.00,VWS V14.00,2013-07-11 19:51:00,
2013-07-11 15:56:00,74.3,65.1,29.84,SE,126,0.0,2.0,73,0.00,,,0.05,229.00,VWS V14.00,2013-07-11 19:56:00,
2013-07-11 16:01:00,74.1,65.3,29.85,ENE,71,0.0,0.0,74,0.00,,,0.05,262.00,VWS V14.00,2013-07-11 20:01:00,
2013-07-11 16:06:00,74.0,65.2,29.85,East,81,3.0,3.0,74,0.00,,,0.05,311.00,VWS V14.00,2013-07-11 20:06:00,
2013-07-11 16:11:00,73.9,65.5,29.84,NE,56,8.0,10.0,75,0.00,,,0.05,536.00,VWS V14.00,2013-07-11 20:11:00,
2013-07-11 16:16:00,73.9,65.5,29.85,ENE,70,1.0,4.0,75,0.00,,,0.05,338.00,VWS V14.00,2013-07-11 20:16:00,
2013-07-11 16:21:00,74.0,65.6,29.85,ENE,78,2.0,5.0,75,0.00,,,0.05,441.00,VWS V14.00,2013-07-11 20:21:00,
2013-07-11 16:26:00,74.1,65.7,29.85,ESE,107,3.0,7.0,75,0.00,,,0.05,464.00,VWS V14.00,2013-07-11 20:26:00,
2013-07-11 16:32:00,74.2,65.8,29.85,ESE,110,0.0,4.0,75,0.00,,,0.05,274.00,VWS V14.00,2013-07-11 20:32:00,
2013-07-11 16:37:00,74.0,65.2,29.85,East,101,0.0,3.0,74,0.01,,,0.06,251.00,VWS V14.00,2013-07-11 20:37:00,
2013-07-11 16:42:00,73.8,64.6,29.85,East,98,2.0,10.0,73,0.01,,,0.06,297.00,VWS V14.00,2013-07-11 20:42:00,
2013-07-11 16:47:00,73.6,64.8,29.85,ENE,57,0.0,7.0,74,0.01,,,0.06,332.00,VWS V14.00,2013-07-11 20:47:00,
2013-07-11 16:52:00,73.6,64.8,29.85,East,91,2.0,5.0,74,0.01,,,0.06,345.00,VWS V14.00,2013-07-11 20:52:00,
2013-07-11 16:57:00,73.5,63.9,29.85,ESE,119,2.0,13.0,72,0.01,,,0.06,510.00,VWS V14.00,2013-07-11 20:57:00,
2013-07-11 17:02:00,73.8,65.0,29.85,ENE,64,7.0,7.0,74,0.01,,,0.06,923.00,VWS V14.00,2013-07-11 21:02:00,
2013-07-11 17:07:00,74.0,64.0,29.86,East,94,8.0,8.0,71,0.01,,,0.06,381.00,VWS V14.00,2013-07-11 21:07:00,
2013-07-11 17:12:00,74.0,64.4,29.86,ENE,78,3.0,5.0,72,0.01,,,0.06,255.00,VWS V14.00,2013-07-11 21:12:00,
2013-07-11 17:17:00,73.9,63.5,29.86,ENE,76,7.0,7.0,70,0.01,,,0.06,211.00,VWS V14.00,2013-07-11 21:17:00,
2013-07-11 17:22:00,73.7,62.5,29.86,NE,53,2.0,7.0,68,0.01,,,0.06,151.00,VWS V14.00,2013-07-11 21:22:00,
2013-07-11 17:28:00,73.3,62.1,29.86,ENE,71,0.0,4.0,68,0.01,,,0.06,142.00,VWS V14.00,2013-07-11 21:28:00,
2013-07-11 17:33:00,73.0,62.2,29.86,ENE,72,3.0,8.0,69,0.01,,,0.06,181.00,VWS V14.00,2013-07-11 21:33:00,
2013-07-11 17:38:00,72.8,62.0,29.87,NE,53,6.0,7.0,69,0.00,,,0.06,195.00,VWS V14.00,2013-07-11 21:38:00,
2013-07-11 17:43:00,72.6,61.9,29.87,NE,55,7.0,7.0,69,0.00,,,0.06,206.00,VWS V14.00,2013-07-11 21:43:00,
2013-07-11 17:48:00,72.5,61.8,29.87,ENE,66,2.0,3.0,69,0.00,,,0.06,204.00,VWS V14.00,2013-07-11 21:48:00,
2013-07-11 17:53:00,72.4,61.7,29.87,East,88,5.0,5.0,69,0.00,,,0.06,192.00,VWS V14.00,2013-07-11 21:53:00,
2013-07-11 17:58:00,72.4,61.2,29.87,NE,53,2.0,10.0,68,0.00,,,0.06,181.00,VWS V14.00,2013-07-11 21:58:00,
2013-07-11 18:03:00,72.3,61.2,29.87,NE,38,2.0,3.0,68,0.00,,,0.06,153.00,VWS V14.00,2013-07-11 22:03:00,
2013-07-11 18:08:00,72.2,61.1,29.87,ENE,66,2.0,7.0,68,0.00,,,0.06,200.00,VWS V14.00,2013-07-11 22:08:00,
2013-07-11 18:14:00,72.2,61.1,29.87,NE,55,0.0,11.0,68,0.00,,,0.06,346.00,VWS V14.00,2013-07-11 22:14:00,
2013-07-11 18:19:00,72.1,61.4,29.87,East,97,0.0,4.0,69,0.00,,,0.06,160.00,VWS V14.00,2013-07-11 22:19:00,
2013-07-11 18:24:00,72.2,61.5,29.87,NE,36,3.0,3.0,69,0.00,,,0.06,128.00,VWS V14.00,2013-07-11 22:24:00,
2013-07-11 18:29:00,72.2,61.5,29.87,East,84,0.0,2.0,69,0.00,,,0.06,76.00,VWS V14.00,2013-07-11 22:29:00,
2013-07-11 18:34:00,72.2,61.1,29.87,ENE,74,2.0,7.0,68,0.00,,,0.06,315.00,VWS V14.00,2013-07-11 22:34:00,
2013-07-11 18:39:00,72.1,61.4,29.87,ENE,78,3.0,7.0,69,0.00,,,0.06,309.00,VWS V14.00,2013-07-11 22:39:00,
2013-07-11 18:44:00,72.2,61.5,29.87,ESE,111,0.0,2.0,69,0.00,,,0.06,292.00,VWS V14.00,2013-07-11 22:44:00,
2013-07-11 18:49:00,72.3,62.0,29.87,East,81,0.0,3.0,70,0.00,,,0.06,271.00,VWS V14.00,2013-07-11 22:49:00,
2013-07-11 18:54:00,72.5,61.8,29.88,East,92,0.0,3.0,69,0.00,,,0.06,257.00,VWS V14.00,2013-07-11 22:54:00,
2013-07-11 18:59:00,72.6,61.9,29.88,ESE,119,0.0,4.0,69,0.00,,,0.06,239.00,VWS V14.00,2013-07-11 22:59:00,
2013-07-11 19:04:00,72.8,62.5,29.88,ESE,110,1.0,3.0,70,0.00,,,0.06,227.00,VWS V14.00,2013-07-11 23:04:00,
2013-07-11 19:09:00,72.9,62.5,29.89,ESE,110,3.0,3.0,70,0.00,,,0.06,56.00,VWS V14.00,2013-07-11 23:09:00,
2013-07-11 19:14:00,73.0,62.7,29.89,ESE,109,1.0,2.0,70,0.00,,,0.06,193.00,VWS V14.00,2013-07-11 23:14:00,
2013-07-11 19:19:00,73.1,62.3,29.89,ESE,106,0.0,2.0,69,0.00,,,0.06,176.00,VWS V14.00,2013-07-11 23:19:00,
2013-07-11 19:24:00,73.1,62.3,29.89,ESE,106,0.0,1.0,69,0.00,,,0.06,158.00,VWS V14.00,2013-07-11 23:24:00,
2013-07-11 19:30:00,73.1,61.9,29.90,ENE,59,1.0,9.0,68,0.00,,,0.06,54.00,VWS V14.00,2013-07-11 23:30:00,
2013-07-11 19:35:00,72.8,60.8,29.90,NE,42,3.0,12.0,66,0.00,,,0.06,30.00,VWS V14.00,2013-07-11 23:35:00,
2013-07-11 19:40:00,72.4,60.4,29.90,NE,55,3.0,10.0,66,0.00,,,0.06,26.00,VWS V14.00,2013-07-11 23:40:00,
2013-07-11 19:45:00,72.0,60.5,29.90,NE,44,1.0,4.0,67,0.00,,,0.06,32.00,VWS V14.00,2013-07-11 23:45:00,
2013-07-11 19:50:00,71.6,59.7,29.90,NE,43,0.0,5.0,66,0.00,,,0.06,30.00,VWS V14.00,2013-07-11 23:50:00,
2013-07-11 19:55:00,71.4,59.9,29.91,NE,54,1.0,5.0,67,0.00,,,0.06,23.00,VWS V14.00,2013-07-11 23:55:00,
2013-07-11 20:00:00,71.0,59.5,29.91,NE,47,0.0,4.0,67,0.00,,,0.06,23.00,VWS V14.00,2013-07-12 00:00:00,
2013-07-11 20:05:00,70.8,59.3,29.91,NE,48,2.0,3.0,67,0.00,,,0.06,19.00,VWS V14.00,2013-07-12 00:05:00,
2013-07-11 20:10:00,70.5,59.0,29.91,NE,48,0.0,3.0,67,0.00,,,0.06,18.00,VWS V14.00,2013-07-12 00:10:00,
2013-07-11 20:15:00,70.3,59.2,29.91,NE,49,2.0,3.0,68,0.00,,,0.06,14.00,VWS V14.00,2013-07-12 00:15:00,
2013-07-11 20:20:00,70.1,59.9,29.92,NE,41,0.0,1.0,70,0.00,,,0.06,12.00,VWS V14.00,2013-07-12 00:20:00,
2013-07-11 20:25:00,69.9,60.5,29.92,NNE,17,0.0,3.0,72,0.00,,,0.06,9.00,VWS V14.00,2013-07-12 00:25:00,
2013-07-11 20:30:00,69.6,60.6,29.92,NNE,17,0.0,0.0,73,0.00,,,0.06,7.00,VWS V14.00,2013-07-12 00:30:00,
2013-07-11 20:36:00,69.2,60.2,29.92,NNE,17,0.0,0.0,73,0.00,,,0.06,5.00,VWS V14.00,2013-07-12 00:36:00,
2013-07-11 20:41:00,68.8,60.2,29.92,NNE,17,0.0,0.0,74,0.00,,,0.06,0.00,VWS V14.00,2013-07-12 00:41:00,
2013-07-11 20:46:00,68.4,60.2,29.92,NNE,17,0.0,1.0,75,0.00,,,0.06,0.00,VWS V14.00,2013-07-12 00:46:00,
2013-07-11 20:51:00,67.9,60.1,29.92,NNE,17,0.0,0.0,76,0.00,,,0.06,0.00,VWS V14.00,2013-07-12 00:51:00,
2013-07-11 20:56:00,67.3,59.8,29.92,NNE,17,0.0,0.0,77,0.00,,,0.06,0.00,VWS V14.00,2013-07-12 00:56:00,
2013-07-11 21:01:00,66.7,59.6,29.93,NNE,17,0.0,0.0,78,0.00,,,0.06,0.00,VWS V14.00,2013-07-12 01:01:00,
2013-07-11 21:06:00,66.2,59.5,29.93,NNE,17,0.0,0.0,79,0.00,,,0.06,0.00,VWS V14.00,2013-07-12 01:06:00,
2013-07-11 21:11:00,65.7,59.4,29.93,NNE,17,1.0,2.0,80,0.00,,,0.06,0.00,VWS V14.00,2013-07-12 01:11:00,
2013-07-11 21:16:00,65.2,59.2,29.93,NNE,17,0.0,0.0,81,0.00,,,0.06,0.00,VWS V14.00,2013-07-12 01:16:00,
2013-07-11 21:21:00,64.8,59.2,29.93,NNE,17,0.0,0.0,82,0.00,,,0.06,0.00,VWS V14.00,2013-07-12 01:21:00,
2013-07-11 21:26:00,64.5,59.2,29.94,NNE,17,0.0,0.0,83,0.00,,,0.06,0.00,VWS V14.00,2013-07-12 01:26:00,
2013-07-11 21:31:00,64.2,58.9,29.94,NNE,17,0.0,0.0,83,0.00,,,0.06,0.00,VWS V14.00,2013-07-12 01:31:00,
2013-07-11 21:36:00,63.9,58.6,29.94,NNE,17,0.0,0.0,83,0.00,,,0.06,0.00,VWS V14.00,2013-07-12 01:36:00,
2013-07-11 21:41:00,63.7,58.8,29.94,NNE,17,0.0,0.0,84,0.00,,,0.06,0.00,VWS V14.00,2013-07-12 01:41:00,
2013-07-11 21:46:00,63.4,58.5,29.95,NNE,17,0.0,0.0,84,0.00,,,0.06,0.00,VWS V14.00,2013-07-12 01:46:00,
2013-07-11 21:51:00,63.1,58.5,29.95,NNE,17,0.0,0.0,85,0.00,,,0.06,0.00,VWS V14.00,2013-07-12 01:51:00,
2013-07-11 21:56:00,62.9,58.3,29.95,NNE,17,0.0,0.0,85,0.00,,,0.06,0.00,VWS V14.00,2013-07-12 01:56:00,
2013-07-11 22:01:00,62.6,58.0,29.95,NNE,17,0.0,0.0,85,0.00,,,0.06,0.00,VWS V14.00,2013-07-12 02:01:00,
2013-07-11 22:06:00,62.4,58.2,29.95,NNE,17,0.0,1.0,86,0.00,,,0.06,0.00,VWS V14.00,2013-07-12 02:06:00,
2013-07-11 22:11:00,62.2,58.0,29.95,NNE,17,0.0,2.0,86,0.00,,,0.06,0.00,VWS V14.00,2013-07-12 02:11:00,
2013-07-11 22:16:00,62.0,57.8,29.95,NNE,17,0.0,0.0,86,0.00,,,0.06,0.00,VWS V14.00,2013-07-12 02:16:00,
2013-07-11 22:21:00,61.8,57.6,29.95,NNE,17,0.0,0.0,86,0.00,,,0.06,0.00,VWS V14.00,2013-07-12 02:21:00,
2013-07-11 22:26:00,61.6,57.4,29.95,NNE,17,0.0,2.0,86,0.00,,,0.06,0.00,VWS V14.00,2013-07-12 02:26:00,
2013-07-11 22:31:00,61.5,57.3,29.95,NNE,17,0.0,0.0,86,0.00,,,0.06,0.00,VWS V14.00,2013-07-12 02:31:00,
2013-07-11 22:36:00,61.3,57.4,29.95,NNE,17,1.0,1.0,87,0.00,,,0.06,0.00,VWS V14.00,2013-07-12 02:36:00,
2013-07-11 22:41:00,61.1,57.2,29.96,NNE,17,0.0,1.0,87,0.00,,,0.06,0.00,VWS V14.00,2013-07-12 02:41:00,
2013-07-11 22:46:00,61.0,57.1,29.96,NNE,17,0.0,0.0,87,0.00,,,0.06,0.00,VWS V14.00,2013-07-12 02:46:00,
2013-07-11 22:52:00,60.9,57.0,29.96,NNE,17,2.0,2.0,87,0.00,,,0.06,0.00,VWS V14.00,2013-07-12 02:52:00,
2013-07-11 22:57:00,60.7,56.8,29.96,NNE,16,0.0,2.0,87,0.00,,,0.06,0.00,VWS V14.00,2013-07-12 02:57:00,
2013-07-11 23:02:00,60.7,57.1,29.96,NNE,13,0.0,2.0,88,0.00,,,0.06,0.00,VWS V14.00,2013-07-12 03:02:00,
2013-07-11 23:07:00,60.6,57.0,29.96,North,5,3.0,4.0,88,0.00,,,0.06,0.00,VWS V14.00,2013-07-12 03:07:00,
2013-07-11 23:12:00,60.6,57.0,29.96,NNW,345,1.0,5.0,88,0.00,,,0.06,0.00,VWS V14.00,2013-07-12 03:12:00,
2013-07-11 23:17:00,60.7,57.1,29.97,NNW,340,2.0,3.0,88,0.00,,,0.06,0.00,VWS V14.00,2013-07-12 03:17:00,
2013-07-11 23:22:00,60.7,57.1,29.97,NNW,334,2.0,5.0,88,0.00,,,0.06,0.00,VWS V14.00,2013-07-12 03:22:00,
2013-07-11 23:27:00,60.7,57.1,29.97,NNW,338,1.0,3.0,88,0.00,,,0.06,0.00,VWS V14.00,2013-07-12 03:27:00,
2013-07-11 23:32:00,60.7,56.8,29.96,NNW,333,2.0,4.0,87,0.00,,,0.06,0.00,VWS V14.00,2013-07-12 03:32:00,
2013-07-11 23:37:00,60.7,56.8,29.96,NNW,345,2.0,5.0,87,0.00,,,0.06,0.00,VWS V14.00,2013-07-12 03:37:00,
2013-07-11 23:42:00,60.8,56.9,29.96,NNW,340,3.0,4.0,87,0.00,,,0.06,0.00,VWS V14.00,2013-07-12 03:42:00,
2013-07-11 23:47:00,60.8,56.9,29.97,NNW,340,0.0,5.0,87,0.00,,,0.06,0.00,VWS V14.00,2013-07-12 03:47:00,
2013-07-11 23:52:00,60.9,56.7,29.97,NNW,340,1.0,3.0,86,0.00,,,0.06,0.00,VWS V14.00,2013-07-12 03:52:00,
2013-07-11 23:58:00,60.9,56.7,29.97,NNW,339,4.0,4.0,86,0.00,,,0.06,0.00,VWS V14.00,2013-07-12 03:58:00,